TimePST,TemperatureF,Dew PointF,Humidity,Sea Level PressureIn,VisibilityMPH,Wind Direction,Wind SpeedMPH,Gust SpeedMPH,PrecipitationIn,Events,Conditions,WindDirDegrees,DateUTC
12:53 AM,30.0,28.0,92,29.75,7.0,SE,4.6,-,N/A,,Overcast,140,2012-01-20 08:53:00
1:16 AM,30.2,30.2,100,29.75,2.5,South,3.5,-,N/A,,Overcast,180,2012-01-20 09:16:00
1:19 AM,30.2,30.2,100,29.76,3.0,Calm,Calm,-,N/A,,Overcast,0,2012-01-20 09:19:00
1:46 AM,30.2,30.2,100,29.77,2.5,Calm,Calm,-,0.00,Rain,Light Freezing Rain,0,2012-01-20 09:46:00
1:50 AM,30.2,30.2,100,29.77,1.8,Calm,Calm,-,0.01,Rain,Light Freezing Rain,0,2012-01-20 09:50:00
1:53 AM,30.9,30.0,96,29.77,1.5,Calm,Calm,-,0.01,Rain,Light Freezing Rain,0,2012-01-20 09:53:00
2:42 AM,30.2,30.2,100,29.77,2.0,SE,4.6,-,0.01,Rain,Light Freezing Rain,140,2012-01-20 10:42:00
2:45 AM,30.2,30.2,100,29.77,2.0,SSE,3.5,-,0.01,,Overcast,150,2012-01-20 10:45:00
2:53 AM,32.0,30.9,96,29.77,3.0,Calm,Calm,-,0.01,,Overcast,0,2012-01-20 10:53:00
3:53 AM,32.0,32.0,100,29.75,4.0,Calm,Calm,-,N/A,,Overcast,0,2012-01-20 11:53:00
4:53 AM,32.0,32.0,100,29.73,3.0,Calm,Calm,-,0.00,,Overcast,0,2012-01-20 12:53:00
5:34 AM,33.8,32.0,93,29.71,6.0,Calm,Calm,-,0.00,,Overcast,0,2012-01-20 13:34:00
5:53 AM,33.1,30.9,92,29.71,5.0,WSW,4.6,-,0.00,,Overcast,240,2012-01-20 13:53:00
6:14 AM,33.8,32.0,93,29.71,3.0,Calm,Calm,-,0.01,Rain,Light Rain,0,2012-01-20 14:14:00
6:22 AM,33.8,32.0,93,29.70,4.0,Calm,Calm,-,0.01,,Overcast,0,2012-01-20 14:22:00
6:53 AM,33.1,32.0,96,29.69,4.0,Calm,Calm,-,0.02,Rain,Light Rain,0,2012-01-20 14:53:00
7:53 AM,33.1,32.0,96,29.66,3.0,Calm,Calm,-,0.01,Rain,Light Rain,0,2012-01-20 15:53:00
8:44 AM,33.8,33.8,100,29.64,3.0,Calm,Calm,-,0.00,,Overcast,0,2012-01-20 16:44:00
8:53 AM,33.1,33.1,100,29.63,3.0,Calm,Calm,-,0.00,,Mostly Cloudy,0,2012-01-20 16:53:00
9:53 AM,34.0,33.1,96,29.60,3.0,Calm,Calm,-,0.00,,Overcast,0,2012-01-20 17:53:00
10:53 AM,34.0,32.0,92,29.57,3.0,Calm,Calm,-,N/A,,Mostly Cloudy,0,2012-01-20 18:53:00
11:53 AM,35.1,33.1,92,29.52,3.0,Calm,Calm,-,0.01,,Overcast,0,2012-01-20 19:53:00
12:53 PM,36.0,35.1,97,29.51,3.0,Calm,Calm,-,0.05,Rain,Light Rain,0,2012-01-20 20:53:00
1:53 PM,37.0,36.0,96,29.46,3.0,Calm,Calm,-,0.08,Rain,Light Rain,0,2012-01-20 21:53:00
2:08 PM,35.6,35.6,100,29.44,1.5,ESE,4.6,-,0.02,Rain,Light Rain,120,2012-01-20 22:08:00
2:22 PM,37.4,37.4,100,29.42,2.5,SSE,8.1,-,0.04,Rain,Light Rain,150,2012-01-20 22:22:00
2:53 PM,37.4,35.6,93,29.37,2.5,SSE,8.1,-,N/A,Rain,Light Rain,150,2012-01-20 22:53:00
2:58 PM,35.6,35.6,100,29.36,3.0,South,6.9,-,0.00,Rain,Light Rain,170,2012-01-20 22:58:00
3:53 PM,37.9,37.0,97,29.31,3.0,Calm,Calm,-,0.04,Rain,Light Rain,0,2012-01-20 23:53:00
4:53 PM,37.9,37.0,97,29.25,6.0,Calm,Calm,-,0.03,Rain,Light Rain,0,2012-01-21 00:53:00
5:53 PM,39.9,37.9,93,29.18,10.0,Calm,Calm,-,0.00,,Overcast,0,2012-01-21 01:53:00
6:53 PM,37.9,37.0,97,29.12,8.0,Calm,Calm,-,0.00,,Overcast,0,2012-01-21 02:53:00
7:53 PM,37.0,36.0,96,29.11,7.0,Calm,Calm,-,0.02,,Overcast,0,2012-01-21 03:53:00
8:53 PM,37.9,36.0,93,29.11,10.0,SE,4.6,-,0.03,,Overcast,140,2012-01-21 04:53:00
9:53 PM,37.0,35.1,93,29.11,6.0,SSE,9.2,-,0.03,Rain,Light Rain,160,2012-01-21 05:53:00
10:53 PM,37.9,37.0,97,29.08,5.0,SSE,9.2,-,0.05,Rain,Light Rain,150,2012-01-21 06:53:00
11:53 PM,37.4,37.4,100,29.05,10.0,SSE,8.1,-,N/A,,Overcast,150,2012-01-21 07:53:00